Weather History for McConnell AFB, KS

Change the Weather History Date:

Tuesday, February 5, 2013

  Actual Average Record
Temperature  
Mean Temperature 46 °F -  
Max Temperature 65 °F 43 °F 67 °F (2009)
Min Temperature 28 °F 25 °F 2 °F (2014)
Degree Days  
Heating Degree Days 18    
Moisture  
Dew Point 25 °F    
Average Humidity 52    
Maximum Humidity 96    
Minimum Humidity 18    
Precipitation  
Precipitation 0.00 in - - ()
Sea Level Pressure  
Sea Level Pressure 30.01 in    
Wind  
Wind Speed 5 mph (NE)    
Max Wind Speed 12 mph    
Max Gust Speed -    
Visibility 10 miles    
Events      
Averages and records for this station are not official NWS values.
T = Trace of Precipitation, MM = Missing Value Source: NWS Daily Summary

Daily Weather History Graph

Daily Weather History Graph

Search for Another Location

Airport:

Trip Planner

Search our weather history database for the weather conditions in past years. The results will help you decide how hot, cold, wet, or windy it might be!

Date:

Astronomy

Feb. 05, 2013 Rise Set
Actual Time 7:28 AM CST 5:57 PM CST
Civil Twilight 7:01 AM CST 6:25 PM CST
Nautical Twilight 6:30 AM CST 6:56 PM CST
Astronomical Twilight 5:59 AM CST 7:26 PM CST
Moon 3:09 AM CST (2/5) 1:18 PM CST (2/5)
Length of Visible Light 11h 23m
Length of Day
10h 28m
Waning Crescent, 26% of the Moon is Illuminated
Feb 5
Waning Crescent
Feb 10
New
Feb 17
First Quarter
Feb 25
Full
Mar 4
Last Quarter

Hourly Weather History & Observations

Time (CST) Temp. Windchill Dew Point Humidity Pressure Visibility Wind Dir Wind Speed Gust Speed Precip Events Conditions
12:55 AM 32.2 °F 28.9 °F 27.0 °F 81% 29.95 in 10.0 mi ESE 3.5 mph - N/A   Clear
1:55 AM 31.1 °F - 26.6 °F 83% 29.95 in 10.0 mi Calm Calm - N/A   Clear
2:55 AM 29.7 °F - 26.4 °F 88% 29.95 in 10.0 mi Calm Calm - N/A   Clear
3:55 AM 28.8 °F 22.6 °F 26.4 °F 91% 29.94 in 10.0 mi South 5.8 mph - N/A   Clear
4:55 AM 28.6 °F 24.8 °F 26.8 °F 93% 29.96 in 10.0 mi WSW 3.5 mph - N/A   Clear
5:55 AM 29.1 °F 24.1 °F 28.0 °F 96% 29.98 in 10.0 mi WSW 4.6 mph - N/A   Clear
6:55 AM 32.4 °F 26.0 °F 29.7 °F 90% 29.99 in 10.0 mi West 6.9 mph - N/A   Clear
7:55 AM 31.6 °F 25.1 °F 29.1 °F 90% 30.03 in 10.0 mi WNW 6.9 mph - N/A   Clear
8:55 AM 37.6 °F 34.0 °F 30.2 °F 75% 30.04 in 10.0 mi WNW 4.6 mph - N/A   Clear
9:55 AM 46.9 °F - 29.5 °F 51% 30.04 in 10.0 mi West 6.9 mph - N/A   Clear
10:55 AM 54.7 °F - 27.7 °F 35% 30.03 in 10.0 mi West 8.1 mph - N/A   Clear
11:55 AM 60.8 °F - 23.0 °F 23% 30.02 in 10.0 mi NW 9.2 mph - N/A   Clear
12:55 PM 63.1 °F - 22.3 °F 21% 30.01 in 10.0 mi North 11.5 mph - N/A   Clear
1:55 PM 64.2 °F - 22.8 °F 21% 30.01 in 10.0 mi NE 8.1 mph - N/A   Clear
2:55 PM 65.3 °F - 22.3 °F 19% 30.00 in 10.0 mi NNE 5.8 mph - N/A   Clear
3:55 PM 65.1 °F - 20.8 °F 18% 30.00 in 10.0 mi ENE 9.2 mph - N/A   Clear
4:55 PM 63.1 °F - 20.5 °F 19% 30.00 in 10.0 mi NE 9.2 mph - N/A   Clear
5:55 PM 59.7 °F - 21.2 °F 23% 30.00 in 10.0 mi East 3.5 mph - N/A   Clear
6:55 PM 54.7 °F - 21.9 °F 28% 30.02 in 10.0 mi ENE 4.6 mph - N/A   Clear
7:55 PM 51.4 °F - 21.9 °F 32% 30.04 in 10.0 mi ENE 5.8 mph - N/A   Clear
8:55 PM 47.7 °F - 23.0 °F 38% 30.05 in 10.0 mi ENE 8.1 mph - N/A   Clear
9:55 PM 48.0 °F - 25.0 °F 41% 30.06 in 10.0 mi East 8.1 mph - N/A   Clear
10:55 PM 45.5 °F 41.3 °F 26.1 °F 47% 30.06 in 10.0 mi East 8.1 mph - N/A   Clear
11:55 PM 43.5 °F 38.3 °F 27.9 °F 54% 30.05 in 10.0 mi ESE 9.2 mph - N/A   Clear